Location: Marsån
(66.4167°N, 22.2833°E)
Time: 11:13:24
(UTC+00:00)

Cosmos 44 Rocket - Pass Details

Date: 24 February 2024
Orbit: 639 x 745 km, 65.1° (Epoch: 15 April)

Event Time Altitude Azimuth Distance (km) Brightness Sun altitude
Rises 20:05:11 0° 293° (WNW) 3,196 7.8 -27.0°
Reaches altitude 10° 20:07:40 10° 287° (WNW) 2,264 6.7 -27.1°
Enters shadow 20:11:54 41° 238° (WSW) 1,062 4.2 -27.4°
